Preview of NWS' New Version of Forecast
This preview is not operational and should not be used for support decisions.

Regional Weather Roundup (RWR)

Issued by National Weather Service (NWS)

                            
000
ASUS42 KTBW 240715
RWRFL 
FLORIDA REGIONAL WEATHER ROUNDUP
NATIONAL WEATHER SERVICE TAMPA BAY RUSKIN FL
300 AM EDT MON JUN 24 2019

NOTE: "FAIR" INDICATES FEW OR NO CLOUDS BELOW 12,000 FEET WITH NO
SIGNIFICANT WEATHER AND/OR OBSTRUCTIONS TO VISIBILITY.

FLZ001>010-012>015-112-114-115-240800-
PANHANDLE FLORIDA
  
CITY           SKY/WX    TMP DP  RH WIND       PRES   REMARKS
PENSACOLA      FAIR      83  79  88 S10       29.96F                  
PENSACOLA NAS  FAIR      83  79  88 S12       29.96F                  
CRESTVIEW      FAIR      77  74  90 CALM      29.99F FOG              
DUKE FIELD     FAIR      79  77  94 S6        29.97F FOG              
VALPARAISO     FAIR      83  77  80 S7        29.97F                  
MARY ESTHER    PTCLDY    83  74  74 S10       29.96F                  
TRI COUNTY     FAIR      75  75 100 CALM      29.99F                  
PANAMA CITY    FAIR      81  76  84 S6        29.98F                  
TYNDALL AFB    FAIR      82  76  80 S9        29.98F                  
APALACHICOLA   FAIR      82  74  76 SW7       30.00S                  

STATION/POSITION SKY/WX   TEMP    WIND        PRES    WAVE   SWELL
                          AIR SEA DIR/SP/G            HT/PER HT/PER
                          (F)     (DEG/KT/KT) (MB)    (FT/S) (FT/S)
PANAMA CITY BEAC           84 85  210/ 14/ 15 1016.0F
TOWER C          NOT AVBL

$$
FLZ011-016>038-118-127-128-134-139-239-240800-
NORTH FLORIDA
  
CITY           SKY/WX    TMP DP  RH WIND       PRES   REMARKS
MARIANNA       FAIR      76  74  93 S5        29.98F                  
TALLAHASSEE    FAIR      75  74  96 CALM      29.99F                  
PERRY          FAIR      76  75  97 CALM      30.00F                  
LIVE OAK       CLEAR     75  75 100 CALM      30.00S FOG              
CROSS CITY     FAIR      75  74  96 CALM      30.00F                  
LAKE CITY      MOCLDY    73  73 100 CALM      30.01F                  
GAINESVILLE    FAIR      75  73  93 CALM      30.03F                  
PALATKA        FAIR      73  72  94 CALM      30.00F                  
MAYPORT NAS    FAIR      77  71  82 SW7       29.98F                  
JACKSONVILLE   MOCLDY    76  71  85 SW6       29.98F                  
JAX NAS        MOCLDY    79  69  71 SW9       29.99F                  
JAX CECIL      FAIR      72  70  94 S3        29.99F                  
FERNANDINA BEA FAIR      75  72  90 NW3       29.99S                  
ST AUGUSTINE   FAIR      74  71  91 SW7       30.00F                  
PALM COAST     FAIR      74  71  91 S5        30.00F                  

STATION/POSITION SKY/WX   TEMP    WIND        PRES    WAVE   SWELL
                          AIR SEA DIR/SP/G            HT/PER HT/PER
                          (F)     (DEG/KT/KT) (MB)    (FT/S) (FT/S)
SHELL POINT      NOT AVBL
KEATON BEACH               83     260/ 10/ 12 1015.8F
CEDAR KEY                  83     270/  5/  7 1016.7F
FERNANDINA                 80 84   40/  2/  3 1016.4R
30.7N   81.3W                 82                N/A     1/10
MAYPORT                    78 82  220/  8/ 12 1015.6F
ST AUGUSTINE               76 81  230/  7/  9 1015.7F

$$
FLZ040-043>046-052-053-057-058-063-144-240800-
INTERIOR CENTRAL FLORIDA
  
CITY           SKY/WX    TMP DP  RH WIND       PRES   REMARKS
OCALA          FAIR      74  73  97 CALM      30.02F                  
LEESBURG       FAIR      75  73  93 CALM      30.03F                  
SANFORD        FAIR      78  72  81 SE3       30.02F                  
ORLANDO EXEC   FAIR      82  73  74 NW3       30.02S                  
ORLANDO INTL   FAIR      79  72  79 W3        30.02F                  
KISSIMMEE      FAIR      78  74  87 W6        30.03F                  
WINTER HAVEN   FAIR      79  73  82 CALM      30.04S                  
LAKELAND       FAIR      75  72  88 CALM      30.04S                  
BARTOW           N/A     75  72  88 CALM      30.02F                  
SEBRING        FAIR      77  75  92 N5        30.02F                  
OKEECHOBEE     FAIR      81  73  78 CALM      30.00F                  

$$
FLZ041-047-054-059-064-141-147-240800-
EAST CENTRAL FLORIDA
  
CITY           SKY/WX    TMP DP  RH WIND       PRES   REMARKS
DAYTONA BEACH  FAIR      76  75  97 S5        30.00F                  
DELAND         FAIR      77  72  83 S7        30.01F                  
JFK SPACE CTR  FAIR      74  62  64 CALM      30.01F                  
CAPE CANAVERAL FAIR      73  39  28 CALM      30.00F                  
PATRICK AFB    FAIR      77  76  96 NE7       30.02S                  
MELBOURNE      FAIR      79  75  87 NW3       30.00F                  
VERO BEACH     FAIR      81  76  84 S6        30.01F                  
FT PIERCE      FAIR      80  75  84 S3        30.01F                  
STUART         CLOUDY    81  73  78 S3        30.03F                  

STATION/POSITION SKY/WX   TEMP    WIND        PRES    WAVE   SWELL
                          AIR SEA DIR/SP/G            HT/PER HT/PER
                          (F)     (DEG/KT/KT) (MB)    (FT/S) (FT/S)
TRIDENT PIER               74 75   50/  4/  5 1017.8F
28.4N   80.5W                 75                N/A     1/10
27.5N   80.2W                 82                N/A     1/ 8

$$
FLZ050-056-061-142-242-148-248-149-249-151-251-155-255-
160-260-240800-
WEST CENTRAL FLORIDA
  
CITY           SKY/WX    TMP DP  RH WIND       PRES   REMARKS
CRYSTAL RIVER  FAIR     N/A N/A N/A CALM      30.02F HAZE             
INVERNESS      FAIR      73  73 100 CALM      30.03S FOG              
BROOKSVILLE    FAIR      70  70 100 CALM      30.02F FOG              
CLEARWATER AIR FAIR      77  73  88 CALM      30.01F                  
ST PETE CLEARW FAIR      77  74  90 CALM      30.01F                  
TAMPA INTL     FAIR      79  74  84 CALM      30.02F                  
PLANT CITY       N/A    N/A N/A N/A MISG        N/A                   
MACDILL AFB    FAIR      76  73  91 CALM      30.01F                  
PETER O KNIGHT CLOUDY   N/A N/A N/A CALM      30.02F                  
ST PETERSBURG  FAIR      82  75  79 CALM      30.00F                  
SARASOTA       FAIR      78  75  90 CALM      30.00F                  
VENICE         FAIR      81  75  83 N5        30.02F                  

STATION/POSITION SKY/WX   TEMP    WIND        PRES    WAVE   SWELL
                          AIR SEA DIR/SP/G            HT/PER HT/PER
                          (F)     (DEG/KT/KT) (MB)    (FT/S) (FT/S)
27.3N   84.2W                 86                N/A     1/ 7
CLEARWATER BEACH           84 90  260/  4/  7 1016.6F
MIDDLE TAMPA BAY           83     350/  5/  6 1016.9F
VENICE                     81 86   20/  5/  6 1016.4F

$$
FLZ066-069-070-075>078-162-262-165-265-240800-
SOUTHWEST FLORIDA AND KEYS
  
CITY           SKY/WX    TMP DP  RH WIND       PRES   REMARKS
PUNTA GORDA    FAIR      78  76  93 CALM      30.03F                  
FT MYERS       FAIR      81  73  76 N5        30.02S                  
SOUTHWEST INTL FAIR      81  75  82 CALM      30.02F                  
NAPLES         FAIR      83  78  85 CALM      30.02F                  
IMMOKALEE      FAIR      79  75  89 CALM      30.01S                  
MARATHON       FAIR      84  75  74 CALM      30.02F                  
KEY WEST NAS   FAIR      84  76  76 SE6       30.02F                  
KEY WEST INTL  FAIR      83  76  79 SE6       30.03S                  

STATION/POSITION SKY/WX   TEMP    WIND        PRES    WAVE   SWELL
                          AIR SEA DIR/SP/G            HT/PER HT/PER
                          (F)     (DEG/KT/KT) (MB)    (FT/S) (FT/S)
NAPLES                     85 90              1016.8F
DRY TORTUGAS     NOT AVBL

$$
FLZ067-068-071>074-168-172>174-240800-
SOUTHEAST FLORIDA 
  
CITY           SKY/WX    TMP DP  RH WIND       PRES   REMARKS
W PALM BEACH   FAIR      82  77  84 SW6       30.02F                  
FT LAUDER-EXEC FAIR      80  75  84 CALM      30.02F                  
FT LAUDERDALE  FAIR      83  76  79 CALM      30.01F                  
POMPANO BEACH  FAIR      82  75  79 CALM      30.02F                  
PEMBROKE PINES FAIR      83  75  77 W5        30.04F                  
OPA LOCKA      FAIR      82  74  76 W5        30.03F                  
MIAMI          FAIR      83  72  69 CALM      30.02F                  
WEST KENDALL   FAIR      77  73  87 W3        30.02F                  
HOMESTEAD      FAIR      79  75  89 CALM      30.01F                  

STATION/POSITION SKY/WX   TEMP    WIND        PRES    WAVE   SWELL
                          AIR SEA DIR/SP/G            HT/PER HT/PER
                          (F)     (DEG/KT/KT) (MB)    (FT/S) (FT/S)
VIRGINIA KEY               85 90  160/  5/  6 1016.3
LAKE WORTH                 83 84  230/  4/  5 1017.9F
FOWEY ROCKS                83 84  190/  7/  7 1016.9F
SETTLEMENT POINT           84     210/  7/  7 1016.5F

$$